M0HZQ-1 Weather Reports


time (UTC)temp
F
wind
direction
speed
knots
gust
knots
rain 1hr
in
rain 24hr
in
rain mn
in
humidity
%
barometer
mb
20260507223854 58 0 0.0 0.0 0.00 0.00 0.00 53 1017.6
20260507221944 58 0 0.0 0.0 0.00 0.00 0.00 52 1017.5
20260507220344 59 0 0.0 0.0 0.00 0.00 0.00 52 1017.4
20260507214404 58 0 0.0 0.0 0.00 0.00 0.00 51 1017.5
20260507212614 59 0 0.0 0.0 0.00 0.00 0.00 51 1017.6
20260507210813 59 0 0.0 0.0 0.00 0.00 0.00 51 1017.4
20260507205104 59 0 0.0 0.0 0.00 0.00 0.00 51 1017.2
20260507203409 59 0 0.0 0.0 0.00 0.00 0.00 50 1017.1
20260507201424 59 0 0.0 0.0 0.00 0.00 0.00 50 1017.0
20260507195828 59 0 0.0 0.0 0.00 0.00 0.00 50 1016.8
20260507193947 60 0 0.0 0.0 0.00 0.00 0.00 49 1016.6
20260507192324 60 0 0.0 0.0 0.00 0.00 0.00 48 1016.5
20260507190408 60 0 0.0 0.0 0.00 0.00 0.00 47 1016.5
20260507184437 61 0 0.0 0.0 0.00 0.00 0.00 46 1016.5
20260507182748 61 0 0.0 0.0 0.00 0.00 0.00 46 1016.3
20260507180928 61 0 0.0 0.0 0.00 0.00 0.00 45 1016.2
20260507175129 61 0 0.0 0.0 0.00 0.00 0.00 45 1016.2
20260507173414 61 0 0.0 0.0 0.00 0.00 0.00 44 1016.3
20260507171804 62 0 0.0 0.0 0.00 0.00 0.00 43 1016.1
20260507170019 63 0 0.0 0.0 0.00 0.00 0.00 42 1016.1
20260507164049 65 0 0.0 0.0 0.00 0.00 0.00 40 1016.1
20260507162054 65 0 0.0 0.0 0.00 0.00 0.00 40 1016.1
20260507160224 63 0 0.0 0.0 0.00 0.00 0.00 40 1016.1
20260507154629 64 0 0.0 0.0 0.00 0.00 0.00 39 1016.2
20260507152644 64 0 0.0 0.0 0.00 0.00 0.00 39 1016.2
20260507150953 64 0 0.0 0.0 0.00 0.00 0.00 39 1016.2
20260507145204 65 0 0.0 0.0 0.00 0.00 0.00 38 1016.2
20260507143214 67 0 0.0 0.0 0.00 0.00 0.00 37 1016.3
20260507141617 66 0 0.0 0.0 0.00 0.00 0.00 38 1016.4
20260507135934 67 0 0.0 0.0 0.00 0.00 0.00 38 1016.6
20260507134217 67 0 0.0 0.0 0.00 0.00 0.00 37 1016.6
20260507132449 68 0 0.0 0.0 0.00 0.00 0.00 38 1016.6
20260507130819 66 0 0.0 0.0 0.00 0.00 0.00 39 1016.7
20260507125224 66 0 0.0 0.0 0.00 0.00 0.00 41 1016.7
20260507123228 64 0 0.0 0.0 0.00 0.00 0.00 42 1016.8
20260507121357 64 0 0.0 0.0 0.00 0.00 0.00 41 1016.8
20260507115414 65 0 0.0 0.0 0.00 0.00 0.00 41 1016.8
20260507113611 64 0 0.0 0.0 0.00 0.00 0.00 42 1016.8
20260507111757 63 0 0.0 0.0 0.00 0.00 0.00 43 1017.0
20260507110153 63 0 0.0 0.0 0.00 0.00 0.00 44 1016.9
20260507104507 64 0 0.0 0.0 0.00 0.00 0.00 44 1017.0
20260507102754 63 0 0.0 0.0 0.00 0.00 0.00 45 1017.1
20260507100923 62 0 0.0 0.0 0.00 0.00 0.00 46 1017.1
20260507095144 63 0 0.0 0.0 0.00 0.00 0.00 46 1017.1
20260507093154 64 0 0.0 0.0 0.00 0.00 0.00 46 1017.2
20260507091517 64 0 0.0 0.0 0.00 0.00 0.00 47 1017.1
20260507085704 63 0 0.0 0.0 0.00 0.00 0.00 49 1017.0
20260507083834 63 0 0.0 0.0 0.00 0.00 0.00 50 1017.0
20260507081837 60 0 0.0 0.0 0.00 0.00 0.00 52 1017.0
20260507075844 60 0 0.0 0.0 0.00 0.00 0.00 54 1016.9
20260507073957 59 0 0.0 0.0 0.00 0.00 0.00 56 1016.9
20260507072234 58 0 0.0 0.0 0.00 0.00 0.00 57 1016.8
20260507070249 57 0 0.0 0.0 0.00 0.00 0.00 59 1016.7
20260507064453 54 0 0.0 0.0 0.00 0.00 0.00 60 1016.6
20260507062624 52 0 0.0 0.0 0.00 0.00 0.00 62 1016.5
20260507060729 52 0 0.0 0.0 0.00 0.00 0.00 61 1016.4
20260507054949 53 0 0.0 0.0 0.00 0.00 0.00 60 1016.4
20260507053129 55 0 0.0 0.0 0.00 0.00 0.00 61 1016.3
20260507051204 54 0 0.0 0.0 0.00 0.00 0.00 63 1016.2
20260507045504 54 0 0.0 0.0 0.00 0.00 0.00 64 1016.1
20260507043714 52 0 0.0 0.0 0.00 0.00 0.00 65 1015.9
20260507042054 51 0 0.0 0.0 0.00 0.00 0.00 66 1016.0
20260507040254 51 0 0.0 0.0 0.00 0.00 0.00 66 1015.8
20260507034554 50 0 0.0 0.0 0.00 0.00 0.00 66 1015.9
20260507032934 51 0 0.0 0.0 0.00 0.00 0.00 66 1015.8
20260507031247 51 0 0.0 0.0 0.00 0.00 0.00 66 1015.8
20260507025259 50 0 0.0 0.0 0.00 0.00 0.00 65 1015.8
20260507023314 51 0 0.0 0.0 0.00 0.00 0.00 64 1015.8
20260507021504 51 0 0.0 0.0 0.00 0.00 0.00 64 1015.7
20260507015709 51 0 0.0 0.0 0.00 0.00 0.00 64 1015.6
20260507013944 51 0 0.0 0.0 0.00 0.00 0.00 64 1015.8
20260507012129 51 0 0.0 0.0 0.00 0.00 0.00 63 1015.6
20260507010134 52 0 0.0 0.0 0.00 0.00 0.00 63 1015.7
20260507004514 52 0 0.0 0.0 0.00 0.00 0.00 63 1015.6
20260507002817 51 0 0.0 0.0 0.00 0.00 0.00 63 1015.7
20260507001122 51 0 0.0 0.0 0.00 0.00 0.00 63 1015.8
20260506235404 51 0 0.0 0.0 0.00 0.00 0.00 62 1015.8
20260506233517 52 0 0.0 0.0 0.00 0.00 0.00 61 1015.5
20260506231904 52 0 0.0 0.0 0.00 0.00 0.00 61 1015.6
20260506230024 51 0 0.0 0.0 0.00 0.00 0.00 61 1015.6
20260506224417 52 0 0.0 0.0 0.00 0.00 0.00 60 1015.7